Weather History for KOXC - June, 2013

Change the Weather History Date:

Thursday, June 6, 2013

  Actual Average Record
Temperature  
Mean Temperature 58 °F -  
Max Temperature 66 °F 69 °F - (-1)
Min Temperature 50 °F 50 °F - (-1)
Degree Days  
Heating Degree Days 7    
Growing Degree Days 8 (Base 50)    
Moisture  
Dew Point 50 °F    
Average Humidity 81    
Maximum Humidity 94    
Minimum Humidity 59    
Precipitation  
Precipitation 0.09 in - - ()
Sea Level Pressure  
Sea Level Pressure 30.15 in    
Wind  
Wind Speed 3 mph (SE)    
Max Wind Speed 14 mph    
Max Gust Speed 18 mph    
Visibility 7 miles    
Events Fog , Rain    
Averages and records for this station are not official NWS values.
T = Trace of Precipitation, MM = Missing Value Source: NWS Daily Summary

Daily Weather History Graph

Daily Weather History Graph

Search for Another Location

Airport or City:

Trip Planner

Search our weather history database for the weather conditions in past years. The results will help you decide how hot, cold, wet, or windy it might be!

Date:

Astronomy

Jun. 06, 2013 Rise Set
Actual Time 5:19 AM EDT 8:23 PM EDT
Civil Twilight 4:45 AM EDT 8:57 PM EDT
Nautical Twilight 4:02 AM EDT 9:40 PM EDT
Astronomical Twilight 3:12 AM EDT 10:30 PM EDT
Moon 4:00 AM EDT (6/6) 6:41 PM EDT (6/6)
Length of Visible Light 16h 11m
Length of Day
15h 04m
Waning Crescent, 4% of the Moon is Illuminated
Jun 6
Waning Crescent
Jun 8
New
Jun 16
First Quarter
Jun 23
Full
Jun 30
Last Quarter

Hourly Weather History & Observations

Time (EDT) Temp. Dew Point Humidity Pressure Visibility Wind Dir Wind Speed Gust Speed Precip Events Conditions
12:15 AM 53.6 °F 44.6 °F 72% 30.17 in 10.0 mi Calm Calm - N/A   Clear
12:35 AM 53.6 °F 44.6 °F 72% 30.17 in 10.0 mi Calm Calm - N/A   Clear
12:55 AM 51.8 °F 44.6 °F 76% 30.18 in 10.0 mi Calm Calm - N/A   Clear
1:15 AM 51.8 °F 44.6 °F 76% 30.17 in 10.0 mi Calm Calm - N/A   Clear
1:35 AM 51.8 °F 44.6 °F 76% 30.17 in 10.0 mi Calm Calm - N/A   Clear
1:55 AM 51.8 °F 44.6 °F 76% 30.17 in 10.0 mi Calm Calm - N/A   Clear
2:15 AM 51.8 °F 44.6 °F 76% 30.17 in 10.0 mi Calm Calm - N/A   Clear
2:35 AM 50.0 °F 44.6 °F 82% 30.18 in 10.0 mi Calm Calm - N/A   Clear
2:55 AM 50.0 °F 44.6 °F 82% 30.18 in 10.0 mi Calm Calm - N/A   Clear
3:15 AM 50.0 °F 46.4 °F 87% 30.18 in 10.0 mi Calm Calm - N/A   Clear
3:35 AM 50.0 °F 44.6 °F 82% 30.17 in 10.0 mi Calm Calm - N/A   Scattered Clouds
3:55 AM 50.0 °F 46.4 °F 87% 30.17 in 0.2 mi Calm Calm - N/A   Overcast
4:15 AM 51.8 °F 48.2 °F 88% 30.16 in 0.2 mi Calm Calm - N/A   Overcast
4:35 AM 53.6 °F 50.0 °F 88% 30.17 in 0.2 mi SE 3.5 mph - N/A   Overcast
4:55 AM 51.8 °F 48.2 °F 88% 30.18 in 0.2 mi Calm Calm - N/A   Overcast
5:15 AM 53.6 °F 48.2 °F 82% 30.17 in 0.2 mi Calm Calm - N/A   Overcast
5:35 AM 53.6 °F 50.0 °F 88% 30.17 in 0.2 mi Calm Calm - N/A   Overcast
5:45 AM 53.6 °F 51.8 °F 94% 30.17 in 0.2 mi SSE 4.6 mph - N/A Fog Light Drizzle
6:10 AM 55.4 °F 51.8 °F 88% 30.17 in 0.8 mi SSE 4.6 mph - N/A   Light Drizzle
6:45 AM 55.4 °F 51.8 °F 88% 30.17 in 1.0 mi East 3.5 mph - N/A   Overcast
7:45 AM 55.4 °F 53.6 °F 94% 30.19 in 3.0 mi SE 3.5 mph - N/A   Overcast
8:10 AM 57.2 °F 53.6 °F 88% 30.19 in 5.0 mi South 9.2 mph - N/A   Overcast
8:30 AM 57.2 °F 53.6 °F 88% 30.18 in 6.0 mi South 9.2 mph - N/A   Overcast
8:45 AM 59.0 °F 53.6 °F 82% 30.18 in 9.0 mi SSE 9.2 mph - N/A   Overcast
9:45 AM 62.6 °F 53.6 °F 72% 30.17 in 10.0 mi SSE 8.1 mph - N/A   Mostly Cloudy
10:45 AM 66.2 °F 55.4 °F 68% 30.16 in 10.0 mi South 8.1 mph - N/A   Mostly Cloudy
11:45 AM 66.2 °F 53.6 °F 64% 30.16 in 10.0 mi South 13.8 mph 18.4 mph N/A   Scattered Clouds
12:45 PM 66.2 °F 53.6 °F 64% 30.15 in 10.0 mi South 11.5 mph 18.4 mph N/A   Scattered Clouds
2:45 PM 66.2 °F 53.6 °F 64% 30.12 in 10.0 mi SSE 11.5 mph 18.4 mph N/A   Partly Cloudy
3:45 PM 64.4 °F 50.0 °F 59% 30.13 in 10.0 mi South 11.5 mph 16.1 mph N/A   Partly Cloudy
4:45 PM 64.4 °F 50.0 °F 59% 30.11 in 10.0 mi South 9.2 mph 17.3 mph N/A   Scattered Clouds
5:45 PM 62.6 °F 48.2 °F 59% 30.12 in 10.0 mi SSE 9.2 mph - N/A   Mostly Cloudy
6:45 PM 60.8 °F 51.8 °F 72% 30.11 in 7.0 mi SSE 6.9 mph - N/A Rain Light Rain
7:45 PM 57.2 °F 53.6 °F 88% 30.11 in 7.0 mi SE 6.9 mph - N/A Rain Light Rain
9:15 PM 57.2 °F 53.6 °F 88% 30.09 in 10.0 mi ESE 8.1 mph - N/A   Overcast
9:35 PM 57.2 °F 53.6 °F 88% 30.10 in 10.0 mi ESE 5.8 mph - N/A   Overcast
9:55 PM 57.2 °F 53.6 °F 88% 30.10 in 10.0 mi ESE 4.6 mph - N/A   Overcast
10:15 PM 57.2 °F 53.6 °F 88% 30.10 in 10.0 mi ESE 4.6 mph - N/A   Overcast
10:35 PM 57.2 °F 53.6 °F 88% 30.10 in 8.0 mi East 4.6 mph - 0.01 in   Overcast
10:55 PM 57.2 °F 53.6 °F 88% 30.10 in 9.0 mi ESE 5.8 mph - 0.04 in   Overcast
11:15 PM 55.4 °F 51.8 °F 88% 30.08 in 10.0 mi ESE 6.9 mph - 0.02 in   Overcast
11:35 PM 55.4 °F 53.6 °F 94% 30.07 in 10.0 mi ESE 8.1 mph - 0.03 in   Overcast
11:55 PM 55.4 °F 53.6 °F 94% 30.06 in 10.0 mi SE 6.9 mph - 0.05 in   Overcast